Weather History for Juliana Airport, Saint Maarten, Saint Maartin

Change the Weather History Date:

Tuesday, January 14, 2014

  Actual Average Record
Temperature  
Mean Temperature 76 °F -  
Max Temperature 81 °F 81 °F - ()
Min Temperature 71 °F 72 °F - ()
Cooling Degree Days 11    
Growing Degree Days 26 (Base 50)    
Moisture  
Dew Point 64 °F    
Average Humidity 62    
Maximum Humidity 88    
Minimum Humidity 37    
Precipitation  
Precipitation 0.08 in 0.07 in - ()
Sea Level Pressure  
Sea Level Pressure 30.09 in    
Wind  
Wind Speed 10 mph ()    
Max Wind Speed 15 mph    
Max Gust Speed -    
Visibility 6.7 miles    
Events Rain    
T = Trace of Precipitation, MM = Missing Value Source: Averaged Metar Reports

Daily Weather History Graph

Daily Weather History Graph

Search for Another Location

Airport:

Trip Planner

Search our weather history database for the weather conditions in past years. The results will help you decide how hot, cold, wet, or windy it might be!

Date:

Astronomy

Jan. 14, 2014 Rise Set
Actual Time 6:46 AM AST 5:56 PM AST
Civil Twilight 6:23 AM AST 6:19 PM AST
Nautical Twilight 5:56 AM AST 6:46 PM AST
Astronomical Twilight 5:30 AM AST 7:13 PM AST
Moon 4:53 PM AST (1/14) 5:21 AM AST (1/14)
Length of Visible Light 11h 56m
Length of Day
11h 09m
Waxing Gibbous, 98% of the Moon is Illuminated
Jan 14
Waxing Gibbous
Jan 16
Full
Jan 24
Last Quarter
Jan 30
New
Feb 6
First Quarter

Hourly Weather History & Observations

Time (AST) Temp. Heat Index Dew Point Humidity Pressure Visibility Wind Dir Wind Speed Gust Speed Precip Events Conditions
12:00 AM 77.0 °F - 64.4 °F 65% 30.09 in 6.2 mi East 10.4 mph - N/A   Partly Cloudy
1:00 AM 77.0 °F - 66.2 °F 69% 30.06 in 6.2 mi East 9.2 mph - N/A   Partly Cloudy
2:00 AM 76 °F - 66 °F 65% 30.08 in 25 mi ENE 8.1 mph - -   Mostly Cloudy
2:00 AM 77.0 °F - 66.2 °F 69% 30.06 in 6.2 mi ENE 9.2 mph - N/A   Scattered Clouds
3:00 AM 75.2 °F - 68.0 °F 78% 30.04 in 6.2 mi East 6.9 mph - N/A   Scattered Clouds
4:00 AM 73.4 °F - 68.0 °F 83% 30.06 in 5.6 mi East 11.5 mph - N/A Rain Light Rain Showers
5:00 AM 74 °F - 69 °F 78% 30.08 in 16 mi East 10.4 mph - - Rain Light Rain Showers
5:00 AM 75.2 °F - 68.0 °F 78% 30.06 in 6.2 mi ENE 10.4 mph - N/A   Mostly Cloudy
6:00 AM 71.6 °F - 68.0 °F 88% 30.09 in 5.6 mi East 15.0 mph - N/A Rain Light Rain Showers
7:00 AM 71.6 °F - 68.0 °F 88% 30.11 in 6.2 mi East 12.7 mph - N/A Rain Light Rain Showers
8:00 AM 74 °F - 67 °F 72% 30.14 in 11 mi East 12.7 mph - - Rain Light Rain Showers
8:00 AM 75.2 °F - 66.2 °F 73% 30.14 in 6.2 mi ENE 13.8 mph - N/A   Mostly Cloudy
9:00 AM 75.2 °F - 64.4 °F 69% 30.15 in 6.2 mi ENE 15.0 mph - N/A Rain Light Rain Showers
10:00 AM 78.8 °F - 64.4 °F 61% 30.15 in 6.2 mi East 9.2 mph - N/A   Partly Cloudy
11:00 AM 80 °F - 66 °F 53% 30.14 in 25 mi ESE 11.5 mph - -   Partly Cloudy
11:00 AM 80.6 °F 82.7 °F 66.2 °F 61% 30.12 in 6.2 mi East 15.0 mph - N/A Rain Light Rain Showers
12:00 PM 80.6 °F 81.8 °F 62.6 °F 54% 30.09 in 6.2 mi East 13.8 mph - N/A   Partly Cloudy
1:00 PM 80.6 °F 81.5 °F 60.8 °F 51% 30.06 in 6.2 mi East 13.8 mph - N/A   Partly Cloudy
2:00 PM 80 °F - 61 °F 42% 30.07 in 37 mi East 15.0 mph - -   Partly Cloudy
2:00 PM 80.6 °F 81.5 °F 60.8 °F 51% 30.06 in 6.2 mi East 15.0 mph - N/A   Partly Cloudy
3:00 PM 80.6 °F 81.8 °F 62.6 °F 54% 30.04 in 6.2 mi East 13.8 mph - N/A   Scattered Clouds
4:00 PM 80.6 °F 81.8 °F 62.6 °F 54% 30.04 in 6.2 mi East 15.0 mph - N/A   Partly Cloudy
5:00 PM 79 °F - 61 °F 43% 30.06 in 37 mi East 12.7 mph - -   Scattered Clouds
5:00 PM 78.8 °F - 60.8 °F 54% 30.04 in 6.2 mi East 12.7 mph - N/A   Partly Cloudy
6:00 PM 77.0 °F - 62.6 °F 61% 30.06 in 6.2 mi East 10.4 mph - N/A   Partly Cloudy
7:00 PM 77.0 °F - 62.6 °F 61% 30.06 in 6.2 mi East 12.7 mph - N/A   Partly Cloudy
8:00 PM 76 °F - 63 °F 54% 30.10 in 37 mi East 10.4 mph - -   Partly Cloudy
8:00 PM 77.0 °F - 62.6 °F 61% 30.09 in 6.2 mi East 10.4 mph - N/A   Scattered Clouds
9:00 PM 77.0 °F - 59.0 °F 54% 30.09 in 6.2 mi East 12.7 mph - N/A   Partly Cloudy
10:00 PM 77.0 °F - 55.4 °F 47% 30.09 in 6.2 mi East 10.4 mph - N/A   Mostly Cloudy
11:00 PM 77 °F - 56 °F 37% 30.12 in 37 mi East 10.4 mph - -   Mostly Cloudy
11:00 PM 77.0 °F - 57.2 °F 50% 30.09 in 6.2 mi East 10.4 mph - N/A   Mostly Cloudy